Hourly Weather Holmy

Today, 11 April, Sunday

Time Temperature Precipitation Wind Pressure Humidity
00:00 +4°C° 0 mm 4 mps 751 mmHg 72%
01:00 +4°C° 0 mm 4 mps 751 mmHg 74%
02:00 +3°C° 0 mm 4 mps 751 mmHg 76%
03:00 +3°C° 0 mm 3 mps 751 mmHg 77%
04:00 +3°C° 0 mm 3 mps 752 mmHg 78%
05:00 +2°C° 0 mm 3 mps 752 mmHg 79%
06:00 +4°C° 0 mm 3 mps 752 mmHg 74%
07:00 +6°C° 0 mm 4 mps 753 mmHg 69%
08:00 +7°C° 0 mm 4 mps 753 mmHg 63%
09:00 +10°C° 0 mm 4 mps 753 mmHg 59%
10:00 +12°C° 0 mm 4 mps 753 mmHg 54%
11:00 +13°C° 0 mm 5 mps 754 mmHg 49%
12:00 +14°C° 0 mm 5 mps 754 mmHg 47%
13:00 +15°C° 0 mm 5 mps 754 mmHg 45%
14:00 +15°C° 0 mm 5 mps 754 mmHg 44%
15:00 +15°C° 0 mm 4 mps 754 mmHg 45%
16:00 +15°C° 0 mm 4 mps 754 mmHg 47%
17:00 +14°C° 0 mm 3 mps 754 mmHg 49%
18:00 +13°C° 0 mm 3 mps 754 mmHg 54%
19:00 +11°C° 0 mm 3 mps 754 mmHg 59%
20:00 +9°C° 0 mm 3 mps 755 mmHg 63%
21:00 +9°C° 0 mm 3 mps 755 mmHg 65%
22:00 +8°C° 0 mm 3 mps 755 mmHg 67%
23:00 +7°C° 0 mm 3 mps 755 mmHg 70%

Tomorrow, 12 April, Monday

Time Temperature Precipitation Wind Pressure Humidity
00:00 +7°C° 0 mm 3 mps 755 mmHg 71%
01:00 +5°C° 0 mm 3 mps 755 mmHg 72%
02:00 +5°C° 0 mm 3 mps 755 mmHg 74%
03:00 +5°C° 0 mm 3 mps 755 mmHg 75%
04:00 +4°C° 0 mm 3 mps 755 mmHg 76%
05:00 +4°C° 0 mm 3 mps 755 mmHg 77%
06:00 +5°C° 0 mm 3 mps 755 mmHg 72%
07:00 +6°C° 0 mm 4 mps 755 mmHg 68%
08:00 +8°C° 0 mm 4 mps 755 mmHg 63%
09:00 +10°C° 0 mm 4 mps 754 mmHg 56%
10:00 +12°C° 0 mm 4 mps 754 mmHg 49%
11:00 +13°C° 0 mm 5 mps 753 mmHg 42%
12:00 +14°C° 0 mm 5 mps 753 mmHg 39%
13:00 +14°C° 0 mm 4 mps 752 mmHg 37%
14:00 +15°C° 0 mm 4 mps 752 mmHg 35%
15:00 +15°C° 0 mm 4 mps 752 mmHg 43%
16:00 +14°C° 0 mm 4 mps 751 mmHg 51%
17:00 +14°C° 0 mm 4 mps 751 mmHg 58%
18:00 +12°C° 0 mm 4 mps 751 mmHg 66%
19:00 +11°C° 0 mm 3 mps 751 mmHg 74%
20:00 +10°C° 0 mm 3 mps 751 mmHg 82%
21:00 +10°C° 0.1 mm 3 mps 751 mmHg 85%
22:00 +9°C° 0.1 mm 3 mps 751 mmHg 88%
23:00 +9°C° 0.1 mm 3 mps 751 mmHg 92%

Day after tomorrow, 13 April, Tuesday

Time Temperature Precipitation Wind Pressure Humidity
00:00 +9°C° 0 mm 2 mps 751 mmHg 91%
01:00 +10°C° 0 mm 1 mps 750 mmHg 91%
02:00 +10°C° 0 mm 1 mps 750 mmHg 90%
03:00 +10°C° 0 mm 1 mps 750 mmHg 91%
04:00 +10°C° 0 mm 1 mps 750 mmHg 91%
05:00 +9°C° 0 mm 1 mps 750 mmHg 91%
06:00 +9°C° 0 mm 2 mps 750 mmHg 88%
07:00 +10°C° 0 mm 2 mps 750 mmHg 86%
08:00 +12°C° 0 mm 2 mps 750 mmHg 84%
09:00 +13°C° 0 mm 2 mps 749 mmHg 78%
10:00 +15°C° 0 mm 2 mps 749 mmHg 72%
11:00 +16°C° 0 mm 2 mps 749 mmHg 66%
12:00 +17°C° 0 mm 3 mps 749 mmHg 66%
13:00 +17°C° 0 mm 3 mps 749 mmHg 65%
14:00 +17°C° 0 mm 3 mps 749 mmHg 65%
15:00 +17°C° 0 mm 3 mps 748 mmHg 67%
16:00 +17°C° 0 mm 2 mps 748 mmHg 68%
17:00 +17°C° 0 mm 2 mps 748 mmHg 69%
18:00 +16°C° 0.1 mm 2 mps 748 mmHg 74%
19:00 +15°C° 0.1 mm 2 mps 748 mmHg 78%
20:00 +14°C° 0.1 mm 2 mps 748 mmHg 83%
21:00 +13°C° 0.1 mm 2 mps 748 mmHg 86%
22:00 +13°C° 0.1 mm 2 mps 747 mmHg 88%
23:00 +12°C° 0.1 mm 2 mps 747 mmHg 91%

14 April, Wednesday

Time Temperature Precipitation Wind Pressure Humidity
00:00 +12°C° 0 mm 2 mps 747 mmHg 91%
01:00 +12°C° 0 mm 2 mps 747 mmHg 91%
02:00 +12°C° 0 mm 2 mps 747 mmHg 91%
03:00 +10°C° 0 mm 2 mps 746 mmHg 91%
04:00 +10°C° 0 mm 2 mps 746 mmHg 92%
05:00 +10°C° 0 mm 3 mps 746 mmHg 93%
06:00 +11°C° 0 mm 3 mps 746 mmHg 89%
07:00 +11°C° 0 mm 4 mps 746 mmHg 85%
08:00 +12°C° 0 mm 4 mps 746 mmHg 81%
09:00 +13°C° 0 mm 4 mps 746 mmHg 76%
10:00 +13°C° 0 mm 4 mps 746 mmHg 71%
11:00 +14°C° 0 mm 4 mps 746 mmHg 65%
12:00 +15°C° 0 mm 4 mps 746 mmHg 62%
13:00 +16°C° 0 mm 3 mps 746 mmHg 59%
14:00 +17°C° 0 mm 3 mps 746 mmHg 56%
15:00 +16°C° 0.1 mm 2 mps 746 mmHg 58%
16:00 +16°C° 0.1 mm 2 mps 746 mmHg 61%
17:00 +16°C° 0.1 mm 1 mps 745 mmHg 63%
18:00 +15°C° 0.1 mm 1 mps 746 mmHg 69%
19:00 +14°C° 0.1 mm 2 mps 746 mmHg 75%
20:00 +12°C° 0.1 mm 2 mps 746 mmHg 81%
21:00 +12°C° 0.1 mm 2 mps 745 mmHg 84%
22:00 +11°C° 0.1 mm 3 mps 745 mmHg 86%
23:00 +11°C° 0.1 mm 3 mps 745 mmHg 89%

15 April, Thursday

Time Temperature Precipitation Wind Pressure Humidity
00:00 +10°C° 0.6 mm 3 mps 745 mmHg 90%
01:00 +10°C° 0.6 mm 3 mps 745 mmHg 90%
02:00 +10°C° 0.6 mm 2 mps 744 mmHg 91%
03:00 +10°C° 0.3 mm 3 mps 744 mmHg 91%
04:00 +10°C° 0.3 mm 3 mps 744 mmHg 91%
05:00 +10°C° 0.3 mm 3 mps 744 mmHg 91%
06:00 +10°C° 0.2 mm 4 mps 744 mmHg 89%
07:00 +9°C° 0.2 mm 5 mps 744 mmHg 87%
08:00 +10°C° 0.2 mm 5 mps 744 mmHg 84%
09:00 +10°C° 0.2 mm 5 mps 744 mmHg 82%
10:00 +12°C° 0.2 mm 5 mps 744 mmHg 79%
11:00 +12°C° 0.2 mm 5 mps 744 mmHg 76%
12:00 +12°C° 0.2 mm 5 mps 744 mmHg 78%
13:00 +12°C° 0.2 mm 4 mps 745 mmHg 80%
14:00 +11°C° 0.2 mm 3 mps 745 mmHg 81%
15:00 +11°C° 0.1 mm 3 mps 745 mmHg 81%
16:00 +11°C° 0.1 mm 3 mps 745 mmHg 81%
17:00 +11°C° 0.1 mm 3 mps 745 mmHg 81%
18:00 +11°C° 0.1 mm 4 mps 745 mmHg 83%
19:00 +9°C° 0.1 mm 5 mps 746 mmHg 86%
20:00 +8°C° 0.1 mm 6 mps 746 mmHg 89%
21:00 +8°C° 0 mm 6 mps 746 mmHg 89%
22:00 +6°C° 0 mm 7 mps 747 mmHg 89%
23:00 +5°C° 0 mm 7 mps 747 mmHg 89%

16 April, Friday

Time Temperature Precipitation Wind Pressure Humidity
00:00 +5°C° 0 mm 7 mps 747 mmHg 89%
01:00 +4°C° 0 mm 7 mps 747 mmHg 88%
02:00 +4°C° 0 mm 7 mps 748 mmHg 88%
03:00 +4°C° 0.1 mm 7 mps 748 mmHg 88%
04:00 +3°C° 0.1 mm 7 mps 748 mmHg 88%
05:00 +3°C° 0.1 mm 7 mps 748 mmHg 88%
06:00 +2°C° 0.6 mm 8 mps 748 mmHg 87%
07:00 +2°C° 0.6 mm 8 mps 749 mmHg 86%
08:00 +1°C° 0.6 mm 8 mps 749 mmHg 85%
09:00 +1°C° 0.4 mm 8 mps 750 mmHg 83%
10:00 +1°C° 0.4 mm 8 mps 750 mmHg 80%
11:00 +1°C° 0.4 mm 8 mps 751 mmHg 77%
12:00 +2°C° 0 mm 8 mps 751 mmHg 72%
13:00 +5°C° 0 mm 8 mps 751 mmHg 66%
14:00 +6°C° 0 mm 8 mps 751 mmHg 61%
15:00 +6°C° 0 mm 8 mps 751 mmHg 58%
16:00 +6°C° 0 mm 8 mps 752 mmHg 55%
17:00 +7°C° 0 mm 8 mps 752 mmHg 52%
18:00 +6°C° 0 mm 7 mps 753 mmHg 54%
19:00 +5°C° 0 mm 7 mps 753 mmHg 56%
20:00 +4°C° 0 mm 7 mps 754 mmHg 58%
21:00 +3°C° 0 mm 7 mps 754 mmHg 59%
22:00 +3°C° 0 mm 7 mps 755 mmHg 61%
23:00 +2°C° 0 mm 7 mps 755 mmHg 63%
Show more